Stations météo

Publicité
Bordeaux/Merignac, France (7510): Température de l'air & dewpoint: 19.03.2019 12:00:00 - 25.03.2019 12:00:00 (CET)Bordeaux/Merignac, France (7510): Température de l'air 5cm: 19.03.2019 12:00:00 - 25.03.2019 12:00:00 (CET)Bordeaux/Merignac, France (7510): Température de l'air -20cm & Température de l'air -100cm: 19.03.2019 12:00:00 - 25.03.2019 12:00:00 (CET)Bordeaux/Merignac, France (7510): Vitesse du vent & gusts: 19.03.2019 12:00:00 - 25.03.2019 12:00:00 (CET)Bordeaux/Merignac, France (7510): Direction du vent: 19.03.2019 12:00:00 - 25.03.2019 12:00:00 (CET)Bordeaux/Merignac, France (7510): reduced air pressure: 19.03.2019 12:00:00 - 25.03.2019 12:00:00 (CET)Bordeaux/Merignac, France (7510): visibility: 19.03.2019 12:00:00 - 25.03.2019 12:00:00 (CET)Bordeaux/Merignac, France (7510): Ensoleillement: 19.03.2019 12:00:00 - 25.03.2019 12:00:00 (CET)Bordeaux/Merignac, France (7510): Quantités de précipitations: 19.03.2019 12:00:00 - 25.03.2019 12:00:00 (CET)
Date & Time tt [°C] td [°C] tt 5cm [°C] tt -20cm [°C] tt -100cm [°C] ff [km/h] ff [knt] fx [km/h] fx [knt] dd ppp [hPa] vv [km] sd [min] rr [mm]
25.03.2019 12:00:00 13,3 2,2 17,1 12,3 12,3 15 8 29 15 N 1029,0 15 60 0,0
25.03.2019 11:00:00 12,8 3,7 15,6 12,1 12,3 12 6 21 12 NNE 1029,3 18 60 0,0
25.03.2019 10:00:00 11,3 4,3 13,3 12,0 12,3 9 5 22 12 N 1029,2 19 60 0,0
25.03.2019 09:00:00 9,2 4,0 10,0 12,0 12,3 18 10 26 14 N 1028,9 19 60 0,0
25.03.2019 08:00:00 8,4 4,2 7,7 12,1 12,2 13 7 21 11 N 1028,3 17 23 0,0
25.03.2019 07:00:00 8,8 5,4 8,2 12,2 12,2 10 6 16 9 N 1028,0 12 0 0,0
25.03.2019 06:00:00 8,8 5,9 8,2 12,3 12,2 10 6 17 9 N 1027,6 10 0 0,0
25.03.2019 05:00:00 8,4 5,5 6,2 12,5 12,2 12 6 19 10 N 1027,5 7 0 0,0
25.03.2019 04:00:00 7,1 4,6 5,3 12,7 12,2 11 6 17 9 N 1027,6 6 0 0,0
25.03.2019 03:00:00 7,0 3,4 5,6 12,9 12,2 11 6 17 9 N 1027,6 6 0 0,0
25.03.2019 02:00:00 7,8 3,1 6,1 13,2 12,2 11 6 18 10 N 1027,6 7 0 0,0
25.03.2019 01:00:00 8,7 3,1 7,1 13,4 12,2 11 6 16 9 N 1027,5 8 0 0,0
25.03.2019 00:00:00 10,2 3,2 9,0 13,6 12,2 11 6 21 12 NNE 1027,4 8 0 0,0
24.03.2019 23:00:00 11,3 4,0 10,4 13,8 12,2 16 9 31 17 NNE 1027,4 9 0 0,0
24.03.2019 22:00:00 12,5 5,4 11,6 14,1 12,1 22 12 33 18 NNE 1027,2 10 0 0,0
24.03.2019 21:00:00 13,8 6,6 12,7 14,3 12,2 16 8 26 14 NNE 1026,4 10 0 0,0
24.03.2019 20:00:00 15,1 6,9 13,6 14,4 12,1 15 8 23 12 N 1025,9 9 0 0,0
24.03.2019 19:00:00 16,9 5,8 15,8 14,5 12,2 13 7 27 14 N 1025,4 17 45 0,0
24.03.2019 18:00:00 18,5 5,3 20,4 14,4 12,1 19 10 33 18 NNE 1024,9 19 60 0,0
24.03.2019 17:00:00 19,9 5,2 21,2 14,3 12,1 24 13 35 19 N 1024,7 20 56 0,0
24.03.2019 16:00:00 21,0 5,3 25,1 13,9 12,1 16 9 30 16 NNE 1024,8 20 60 0,0
24.03.2019 15:00:00 21,1 3,3 24,9 13,4 12,1 13 7 32 17 N 1025,2 32 60 0,0
24.03.2019 14:00:00 20,5 4,5 24,5 12,8 12,1 11 6 25 14 ENE 1025,7 31 60 0,0
24.03.2019 13:00:00 19,5 3,6 23,7 12,3 12,1 14 7 24 13 NE 1026,4 11 60 0,0
24.03.2019 12:00:00 18,9 3,1 22,1 11,9 12,1 9 5 21 11 NE 1026,7 20 60 0,0
24.03.2019 11:00:00 17,8 3,3 19,8 11,6 12,1 6 3 15 8 ENE 1026,7 18 60 0,0
24.03.2019 10:00:00 15,6 4,3 16,0 11,4 12,1 8 4 13 7 NNE 1026,9 16 60 0,0
24.03.2019 09:00:00 12,9 5,3 11,4 11,5 12,1 9 5 10 6 NE 1026,6 19 60 0,0
24.03.2019 08:00:00 7,8 6,1 1,4 11,6 12,1 3 2 5 3 NNE 1026,3 19 45 0,0
24.03.2019 07:00:00 4,8 3,0 1,1 11,8 12,1 0 0 5 3 N 1026,1 5 0 0,0
24.03.2019 06:00:00 5,0 3,2 1,3 12,0 12,1 2 1 3 2 NNE 1026,0 7 0 0,0
24.03.2019 05:00:00 5,7 3,7 1,7 12,2 12,0 3 1 4 2 NNE 1025,7 23 0 0,0
24.03.2019 04:00:00 6,1 4,4 2,1 12,5 12,0 0 0 0 0 N 1025,6 21 0 0,0
24.03.2019 03:00:00 6,7 4,2 2,8 12,7 12,0 0 0 3 2 N 1025,6 23 0 0,0
24.03.2019 02:00:00 7,7 4,8 3,7 12,9 12,0 3 1 4 2 WNW 1025,6 25 0 0,0
24.03.2019 01:00:00 8,8 5,9 4,3 13,2 12,0 3 1 5 3 NNE 1025,8 36 0 0,0
24.03.2019 00:00:00 10,4 5,0 5,3 13,5 12,0 3 1 8 5 NNE 1026,1 41 0 0,0
23.03.2019 23:00:00 12,8 4,7 9,2 13,7 12,0 8 5 12 7 N 1026,1 46 0 0,0
23.03.2019 22:00:00 13,8 3,5 10,1 13,9 12,0 10 5 16 9 N 1026,3 53 0 0,0
23.03.2019 21:00:00 15,4 2,9 13,1 14,2 12,0 12 6 27 15 N 1026,1 60 0 0,0
23.03.2019 20:00:00 17,3 2,5 15,2 14,3 12,0 14 8 21 12 N 1025,7 60 0 0,0
23.03.2019 19:00:00 19,6 2,0 18,5 14,4 12,0 12 6 25 13 NNE 1025,3 60 47 0,0
23.03.2019 18:00:00 21,5 2,2 23,1 14,3 11,9 13 7 22 12 NNE 1025,0 45 60 0,0
23.03.2019 17:00:00 22,1 0,0 25,8 14,0 12,0 8 5 18 10 NE 1025,3 47 60 0,0
23.03.2019 16:00:00 22,1 0,6 26,1 13,6 12,0 7 4 23 12 NNE 1025,7 51 60 0,0
23.03.2019 15:00:00 22,5 2,0 26,7 13,0 12,0 11 6 21 11 NNE 1026,4 53 60 0,0
23.03.2019 14:00:00 21,3 1,0 25,3 12,5 12,0 9 5 22 12 ENE 1027,0 38 60 0,0
23.03.2019 13:00:00 20,8 2,1 24,0 11,9 11,9 12 6 21 11 ENE 1027,8 35 60 0,0
23.03.2019 12:00:00 20,0 1,9 24,1 11,5 12,0 8 4 17 9 NNE 1028,0 47 60 0,0
23.03.2019 11:00:00 19,2 3,8 20,6 11,0 11,9 3 2 21 12 ENE 1028,2 20 60 0,0
23.03.2019 10:00:00 16,0 4,1 16,3 10,9 12,0 4 2 7 4 ENE 1028,4 20 60 0,0
23.03.2019 09:00:00 12,4 5,1 10,6 10,9 11,9 0 0 3 2 N 1028,4 15 60 0,0
23.03.2019 08:00:00 6,6 4,8 0,8 11,1 11,9 0 0 8 4 N 1028,3 13 36 0,0
23.03.2019 07:00:00 5,1 3,8 0,6 11,3 11,9 7 4 8 5 NE 1028,2 14 0 0,0
23.03.2019 06:00:00 4,6 3,1 1,2 11,5 11,9 0 0 5 3 N 1027,9 15 0 0,0
23.03.2019 05:00:00 4,8 2,8 1,4 11,7 11,9 0 0 3 1 N 1027,8 17 0 0,0
23.03.2019 04:00:00 5,2 2,9 1,9 11,9 11,9 0 0 2 1 N 1027,8 13 0 0,0
23.03.2019 03:00:00 6,1 3,3 2,5 12,1 11,9 2 1 4 2 S 1028,1 13 0 0,0
23.03.2019 02:00:00 6,6 3,9 2,8 12,4 11,9 2 1 4 2 ESE 1028,2 18 0 0,0
23.03.2019 01:00:00 7,7 3,9 3,5 12,6 11,9 0 0 4 2 N 1028,2 11 0 0,0
23.03.2019 00:00:00 8,7 4,1 4,0 12,8 11,8 4 2 8 4 E 1028,3 21 0 0,0
22.03.2019 23:00:00 10,2 4,1 5,4 13,1 11,8 5 3 14 8 E 1028,4 43 0 0,0
22.03.2019 22:00:00 11,2 3,7 6,0 13,3 11,9 8 4 14 7 N 1028,1 47 0 0,0
22.03.2019 21:00:00 13,3 4,2 10,2 13,5 11,9 9 5 21 11 N 1027,7 50 0 0,0
22.03.2019 20:00:00 15,7 2,8 12,0 13,7 11,9 11 6 16 8 NNW 1027,5 56 0 0,0
22.03.2019 19:00:00 19,0 2,3 16,9 13,7 11,9 9 5 19 10 E 1026,7 60 60 0,0
22.03.2019 18:00:00 20,0 0,9 21,6 13,6 11,9 10 5 17 9 NE 1026,5 52 60 0,0
22.03.2019 17:00:00 20,6 -1,3 24,1 13,3 11,9 5 3 19 10 E 1026,7 55 60 0,0
22.03.2019 16:00:00 20,9 0,1 25,0 12,8 11,9 4 2 19 10 N 1027,0 47 60 0,0
22.03.2019 15:00:00 20,4 1,3 24,4 12,3 11,9 3 2 15 8 ENE 1027,4 39 60 0,0
22.03.2019 14:00:00 19,2 2,9 23,5 11,6 11,9 6 4 16 9 E 1028,1 40 60 0,0
22.03.2019 13:00:00 18,2 3,6 21,9 11,1 11,9 8 4 22 12 E 1028,9 32 60 0,0
22.03.2019 12:00:00 17,1 2,7 19,1 10,6 11,9 6 4 18 10 SE 1029,2 39 60 0,0
22.03.2019 11:00:00 15,4 2,2 16,7 10,3 11,9 11 6 18 10 ESE 1029,4 29 60 0,0
22.03.2019 10:00:00 12,5 2,6 11,8 10,2 11,9 7 4 13 7 SSE 1029,4 20 60 0,0
22.03.2019 09:00:00 8,9 2,2 7,9 10,2 11,9 8 4 10 5 ESE 1029,3 18 60 0,0
22.03.2019 08:00:00 5,8 1,5 0,4 10,4 11,9 5 3 10 5 ESE 1029,2 19 45 0,0
22.03.2019 07:00:00 3,7 0,0 0,5 10,6 11,9 6 3 11 6 SE 1028,8 21 0 0,0
22.03.2019 06:00:00 3,9 0,4 0,3 10,8 11,9 6 3 10 6 SSE 1028,5 21 0 0,0
22.03.2019 05:00:00 4,3 1,3 -0,3 11,0 11,9 10 5 11 6 ESE 1028,3 16 0 0,0
22.03.2019 04:00:00 3,1 0,8 -0,7 11,2 11,9 5 3 8 4 SE 1028,4 11 0 0,0
22.03.2019 03:00:00 3,4 1,1 -0,4 11,4 11,8 4 2 5 3 E 1028,7 14 0 0,0
22.03.2019 02:00:00 4,0 1,9 -0,1 11,7 11,8 0 0 2 1 N 1028,6 13 0 0,0
22.03.2019 01:00:00 4,7 2,6 0,4 11,9 11,9 0 0 5 3 N 1028,8 20 0 0,0
22.03.2019 00:00:00 5,6 1,5 1,6 12,2 11,8 0 0 4 2 N 1029,0 20 0 0,0
21.03.2019 23:00:00 7,0 2,5 2,6 12,4 11,8 0 0 4 2 N 1028,9 18 0 0,0
21.03.2019 22:00:00 8,4 2,6 3,6 12,7 11,8 0 0 7 4 N 1028,9 19 0 0,0
21.03.2019 21:00:00 10,5 1,6 5,2 12,9 11,8 5 3 10 5 WSW 1028,6 22 0 0,0
21.03.2019 20:00:00 13,0 1,6 8,2 13,0 11,8 3 2 16 9 SSW 1028,3 42 0 0,0
21.03.2019 19:00:00 15,7 0,7 14,8 13,1 11,8 12 6 18 10 NNE 1027,9 51 60 0,0
21.03.2019 18:00:00 16,8 0,8 18,6 13,0 11,8 13 7 24 13 NNE 1027,7 43 60 0,0
21.03.2019 17:00:00 17,2 0,8 20,2 12,8 11,8 17 9 24 13 NNE 1027,8 37 60 0,0
21.03.2019 16:00:00 17,6 0,7 21,2 12,4 11,9 9 5 37 20 NE 1028,1 37 60 0,0
21.03.2019 15:00:00 17,0 1,0 20,8 11,9 11,9 12 6 29 16 NE 1028,7 33 60 0,0
21.03.2019 14:00:00 16,5 1,0 20,5 11,4 11,9 9 5 26 14 NE 1029,3 20 - 0,0
21.03.2019 13:00:00 15,2 1,3 18,5 10,9 11,9 15 8 26 14 NE 1030,1 46 - 0,0
21.03.2019 12:00:00 13,3 1,9 16,9 10,6 11,9 17 9 25 14 NE 1030,7 20 - 0,0
21.03.2019 11:00:00 12,2 3,2 14,1 10,3 11,9 13 7 20 11 NE 1031,1 14 - 0,0
21.03.2019 10:00:00 10,4 2,5 11,3 10,2 11,9 8 4 20 11 ENE 1031,4 20 - 0,0
21.03.2019 09:00:00 8,6 3,4 8,1 10,2 11,9 11 6 19 10 NE 1031,6 18 60 0,0
21.03.2019 08:00:00 5,8 3,5 -0,2 10,4 11,9 8 4 9 5 N 1031,5 8 36 0,0
21.03.2019 07:00:00 3,8 2,2 -0,2 10,6 11,9 3 1 11 6 N 1031,4 1,7 0 0,0
21.03.2019 06:00:00 4,7 2,9 -0,1 10,8 11,9 9 5 11 6 N 1031,0 8 0 0,0
21.03.2019 05:00:00 4,1 2,8 0,3 11,0 11,9 3 2 10 5 NW 1031,0 12 0 0,0
21.03.2019 04:00:00 4,8 2,8 0,4 11,2 11,9 5 3 6 4 NNW 1030,9 4,5 0 0,0
21.03.2019 03:00:00 7,1 3,0 4,8 11,4 11,9 3 2 9 5 W 1031,2 1,2 0 0,0
21.03.2019 02:00:00 7,1 3,3 4,1 11,5 11,9 6 4 8 5 NNE 1031,9 23 0 0,0
21.03.2019 01:00:00 7,6 3,6 5,0 11,7 11,9 4 2 11 6 WNW 1032,0 21 0 0,0
21.03.2019 00:00:00 8,6 3,8 7,7 11,9 11,9 10 6 15 8 NNE 1032,3 35 0 0,0
20.03.2019 23:00:00 9,6 3,6 8,1 12,0 11,9 13 7 17 9 N 1032,5 48 0 0,0
20.03.2019 22:00:00 10,3 2,9 8,5 12,2 11,9 7 4 21 11 W 1032,6 58 0 0,0
20.03.2019 21:00:00 11,1 2,4 9,5 12,4 11,9 13 7 18 10 N 1032,6 60 0 0,0
20.03.2019 20:00:00 11,9 2,1 10,6 12,5 11,9 13 7 23 12 N 1032,1 60 0 0,0
20.03.2019 19:00:00 13,3 1,6 12,8 12,6 11,9 15 8 29 16 N 1031,9 60 53 0,0
20.03.2019 18:00:00 14,3 1,5 14,4 12,5 11,9 18 10 34 18 NNE 1031,4 40 49 0,0
20.03.2019 17:00:00 14,4 1,6 16,5 12,4 11,9 20 11 35 19 NNE 1031,4 38 60 0,0
20.03.2019 16:00:00 15,2 -0,2 19,3 12,0 11,9 21 11 35 19 N 1031,6 53 60 0,0
20.03.2019 15:00:00 15,1 0,1 18,8 11,6 11,9 18 10 31 17 NNE 1032,1 46 60 0,0
20.03.2019 14:00:00 14,4 -0,9 18,7 11,1 11,9 20 11 31 17 NE 1032,8 34 60 0,0
20.03.2019 13:00:00 13,6 -0,5 16,9 10,7 11,9 14 8 29 16 NNE 1033,6 50 60 0,0
20.03.2019 12:00:00 13,1 -1,3 15,8 10,3 12,0 17 9 30 16 NE 1033,9 29 60 0,0
20.03.2019 11:00:00 11,6 1,8 13,5 10,0 12,0 18 10 30 16 ENE 1034,1 44 60 0,0
20.03.2019 10:00:00 9,6 2,9 11,5 10,0 12,0 9 5 16 9 NE 1034,3 35 60 0,0
20.03.2019 09:00:00 7,8 3,5 5,3 10,0 12,0 6 3 8 4 NNE 1033,8 22 60 0,0
20.03.2019 08:00:00 4,5 4,2 -1,2 10,2 12,0 0 0 8 4 N 1033,6 6 19 0,0
20.03.2019 07:00:00 1,9 1,3 -1,7 10,4 12,0 4 2 10 5 N 1033,1 2,2 0 0,0
20.03.2019 06:00:00 2,5 1,8 -1,0 10,6 11,9 3 1 4 2 NW 1032,6 0,8 0 0,0
20.03.2019 05:00:00 3,8 2,6 -0,1 10,8 12,0 0 0 6 4 N 1032,4 0,3 0 0,0
20.03.2019 04:00:00 4,5 3,3 2,1 11,0 11,9 5 3 10 5 NNE 1032,5 9 0 0,0
20.03.2019 03:00:00 4,7 3,7 1,9 11,2 12,0 6 3 8 5 N 1032,6 13 0 0,0
20.03.2019 02:00:00 5,2 4,2 1,6 11,4 11,9 5 3 6 4 N 1032,8 3,7 0 0,0
20.03.2019 01:00:00 6,1 4,4 4,9 11,6 12,0 3 2 15 8 N 1032,8 1,3 0 0,0
20.03.2019 00:00:00 6,8 4,8 5,9 11,8 11,9 13 7 18 10 N 1032,9 29 0 0,0
19.03.2019 23:00:00 7,4 5,2 6,3 12,0 11,9 13 7 19 10 N 1032,6 33 0 0,0
19.03.2019 22:00:00 7,7 4,8 6,6 12,2 11,9 13 7 20 11 NNW 1032,0 46 0 0,0
19.03.2019 21:00:00 8,3 3,7 6,8 12,4 12,0 10 6 19 11 NW 1031,4 39 0 0,0
19.03.2019 20:00:00 9,4 3,6 7,8 12,6 11,9 8 4 21 11 NNW 1030,7 60 0 0,0
19.03.2019 19:00:00 11,2 3,0 10,6 12,6 11,9 13 7 26 14 N 1030,1 60 55 0,0
19.03.2019 18:00:00 12,1 2,0 12,0 12,6 12,0 17 9 28 15 N 1029,5 51 43 0,0
19.03.2019 17:00:00 13,0 2,8 14,7 12,5 12,0 18 10 33 18 N 1029,2 53 56 0,0
19.03.2019 16:00:00 13,1 4,3 12,6 12,3 12,0 16 9 32 17 N 1029,2 51 29 0,0
19.03.2019 15:00:00 12,4 3,1 13,7 12,0 12,0 18 10 29 16 NNE 1029,3 55 21 0,0
19.03.2019 14:00:00 11,7 2,9 13,2 11,6 12,0 11 6 29 16 N 1029,5 55 36 0,0
19.03.2019 13:00:00 11,4 3,9 12,0 11,3 12,0 16 9 28 15 NE 1029,8 56 23 0,0
19.03.2019 12:00:00 10,6 3,8 11,8 11,0 12,0 15 8 22 12 N 1029,8 19 42 0,0

tt = Température de l'air
td = dewpoint
tt 5cm = Température de l'air 5cm
tt -20cm = Température de l'air -20cm
tt -100cm = Température de l'air -100cm
ff = Vitesse du vent
fx = gusts
dd = Direction du vent
ppp = reduced air pressure
vv = visibility
sd = Ensoleillement
rr = Quantités de précipitations

stations d'obs. à proximité